Weather History for Quincy, IL

Change the Weather History Date:

Wednesday, January 1, 2014

  Actual Average Record
Temperature  
Mean Temperature 20 °F 27 °F  
Max Temperature 25 °F 34 °F 60 °F (1905)
Min Temperature 15 °F 19 °F -13 °F (1974)
Degree Days  
Heating Degree Days 45 38  
Month to date heating degree days 45 38  
Since 1 July heating degree days 2361 2229  
Cooling Degree Days 0 0  
Month to date cooling degree days 0 0  
Year to date cooling degree days 0 0  
Moisture  
Dew Point 14 °F    
Average Humidity 81    
Maximum Humidity 88    
Minimum Humidity 74    
Precipitation  
Precipitation 0.03 in 0.06 in 3.38 in (1965)
Sea Level Pressure  
Sea Level Pressure 30.16 in    
Wind  
Wind Speed 13 mph (NNE)    
Max Wind Speed 22 mph    
Max Gust Speed 26 mph    
Visibility 5 miles    
Events Fog , Snow    
T = Trace of Precipitation, MM = Missing Value Source: NWS Daily Summary

Daily Weather History Graph

Daily Weather History Graph

Search for Another Location

Airport:

Trip Planner

Search our weather history database for the weather conditions in past years. The results will help you decide how hot, cold, wet, or windy it might be!

Date:

Astronomy

Jan. 01, 2014 Rise Set
Actual Time 7:26 AM CST 4:50 PM CST
Civil Twilight 6:56 AM CST 5:20 PM CST
Nautical Twilight 6:22 AM CST 5:54 PM CST
Astronomical Twilight 5:49 AM CST 6:27 PM CST
Moon 7:17 AM CST (1/1) 5:35 PM CST (1/1)
Length of Visible Light 10h 24m
Length of Day
9h 24m
New Moon, 0% of the Moon is Illuminated
Jan 1
New Moon
Jan 7
First Quarter
Jan 15
Full
Jan 23
Last Quarter
Jan 30
New

Hourly Weather History & Observations

Time (CST) Temp. Windchill Dew Point Humidity Pressure Visibility Wind Dir Wind Speed Gust Speed Precip Events Conditions
12:54 AM 18.0 °F 7.7 °F 14.0 °F 84% 30.17 in 9.0 mi NE 8.1 mph - N/A   Clear
1:54 AM 18.0 °F 7.7 °F 14.0 °F 84% 30.16 in 9.0 mi ENE 8.1 mph - N/A   Clear
2:54 AM 18.0 °F 7.7 °F 14.0 °F 84% 30.16 in 9.0 mi ENE 8.1 mph - N/A   Clear
3:54 AM 18.0 °F 6.1 °F 12.9 °F 81% 30.14 in 9.0 mi NE 10.4 mph - N/A   Clear
4:54 AM 19.0 °F 7.5 °F 14.0 °F 81% 30.14 in 9.0 mi NE 10.4 mph - N/A   Clear
5:54 AM 19.9 °F 9.3 °F 15.1 °F 81% 30.14 in 10.0 mi ENE 9.2 mph - N/A   Clear
6:54 AM 19.9 °F 8.6 °F 15.1 °F 81% 30.16 in 10.0 mi NE 10.4 mph - N/A   Clear
7:54 AM 19.9 °F 7.3 °F 15.1 °F 81% 30.16 in 7.0 mi NE 12.7 mph - N/A   Clear
8:54 AM 21.0 °F 11.4 °F 16.0 °F 81% 30.19 in 7.0 mi NE 8.1 mph - N/A   Clear
9:54 AM 21.0 °F 8.6 °F 16.0 °F 81% 30.20 in 7.0 mi NNE 12.7 mph - N/A   Mostly Cloudy
10:54 AM 21.9 °F 10.4 °F 16.0 °F 78% 30.19 in 8.0 mi NE 11.5 mph - N/A   Mostly Cloudy
11:08 AM 23.0 °F 11.7 °F 17.1 °F 78% 30.15 in 8.0 mi NE 11.5 mph - N/A   Scattered Clouds
11:22 AM 24.1 °F 13.7 °F 17.1 °F 75% 30.15 in 8.0 mi NNE 10.4 mph - N/A   Mostly Cloudy
11:54 AM 24.1 °F 13.7 °F 17.1 °F 75% 30.17 in 7.0 mi NE 10.4 mph - N/A   Scattered Clouds
12:22 PM 24.1 °F 13.7 °F 17.1 °F 75% 30.12 in 7.0 mi NNE 10.4 mph - N/A   Mostly Cloudy
12:54 PM 24.1 °F 12.5 °F 17.1 °F 75% 30.15 in 7.0 mi North 12.7 mph - N/A   Overcast
1:54 PM 23.0 °F 10.6 °F 16.0 °F 74% 30.14 in 8.0 mi NNE 13.8 mph - N/A   Overcast
2:54 PM 21.0 °F 8.1 °F 15.1 °F 78% 30.13 in 7.0 mi North 13.8 mph - N/A   Overcast
3:54 PM 19.9 °F 6.2 °F 14.0 °F 78% 30.14 in 7.0 mi NNE 15.0 mph - N/A   Overcast
4:38 PM 19.9 °F 5.7 °F 15.1 °F 81% 30.12 in 1.8 mi NNE 16.1 mph - 0.00 in Snow Light Snow
4:51 PM 19.4 °F 5.5 °F 15.8 °F 86% 30.12 in 1.5 mi North 15.0 mph - 0.00 in Snow Light Snow
4:54 PM 19.0 °F 5.0 °F 15.1 °F 85% 30.16 in 1.8 mi North 15.0 mph - 0.00 in Snow Light Snow
5:54 PM 17.1 °F 2.5 °F 12.9 °F 84% 30.17 in 1.0 mi North 15.0 mph - 0.00 in Snow Light Snow
5:59 PM 17.1 °F 3.0 °F 12.9 °F 84% 30.13 in 0.8 mi North 13.8 mph - 0.00 in Snow Light Snow
6:06 PM 17.1 °F 3.6 °F 12.9 °F 84% 30.13 in 1.0 mi North 12.7 mph - 0.00 in Snow Light Snow
6:16 PM 17.1 °F 3.0 °F 12.9 °F 84% 30.14 in 0.8 mi North 13.8 mph - 0.00 in Snow Light Snow
6:29 PM 17.1 °F 2.5 °F 12.9 °F 84% 30.14 in 0.8 mi North 15.0 mph - 0.01 in Snow Light Snow
6:54 PM 16.0 °F 2.3 °F 12.9 °F 88% 30.18 in 0.5 mi North 12.7 mph - 0.01 in Fog , Snow Snow
7:54 PM 17.1 °F 3.6 °F 12.9 °F 84% 30.19 in 0.8 mi North 12.7 mph - 0.02 in Snow Light Snow
8:17 PM 17.1 °F 3.0 °F 12.9 °F 84% 30.16 in 0.8 mi North 13.8 mph - 0.00 in Snow Light Snow
8:41 PM 17.1 °F 3.0 °F 12.9 °F 84% 30.16 in 1.0 mi North 13.8 mph - 0.00 in Snow Light Snow
8:54 PM 17.1 °F 3.0 °F 12.9 °F 84% 30.19 in 1.0 mi North 13.8 mph - 0.00 in Snow Light Snow
9:54 PM 17.1 °F 1.0 °F 12.0 °F 81% 30.19 in 1.8 mi North 18.4 mph - 0.00 in Snow Light Snow
10:32 PM 16.0 °F -0.4 °F 12.0 °F 84% 30.15 in 2.0 mi North 18.4 mph - 0.00 in Snow Light Snow
10:54 PM 16.0 °F 0.1 °F 10.9 °F 81% 30.19 in 1.8 mi North 17.3 mph - 0.00 in Snow Light Snow
11:54 PM 15.1 °F -2.0 °F 10.0 °F 80% 30.20 in 1.8 mi North 19.6 mph 26.5 mph 0.00 in Snow Light Snow